Home > Weather > Waterbury > Past weeks

Flag for USA Past Weather in Waterbury, Connecticut, USA — Yesterday and Last 2 Weeks

Now
75 °F

Passing clouds.


Feels Like: 77 °F
Forecast: 52 / 79 °F
Wind: 5 mph from Northwest

Location: Oxford

Current Time: Aug 23, 2016 at 5:07:42 PM

Latest Report: Aug 23, 2016 at 3:50 PM


Visibility: 10 mi

Pressure: 30.30 "Hg

Humidity: 39%

Dew Point: 48 °F

Location of WaterburyLocation

Past Weather in Waterbury — Graph

°F

Waterbury Temperature Yesterday

Maximum temperature yesterday: 73 °F (at 12:50 PM)
Minimum temperature yesterday: 57 °F (at 10:35 PM)
Average temperature yesterday: 66 °F

High & Low Weather Summary for the Past Weeks

 TemperatureHumidityPressure
High91 °F (Aug 13, 12:50 PM)94% (Aug 11, 2:55 AM)30.35 "Hg (Aug 11, 2:55 AM)
Low52 °F (Aug 23, 2:15 AM)37% (Aug 8, 3:50 PM)29.79 "Hg (Aug 21, 10:35 PM)
Average73 °F75%30.06 "Hg
* Reported Aug 8 3:50 PM — Aug 23 3:50 PM, Waterbury, Weather by CustomWeather, © 2016

Note: Actual official high and low records may vary slightly from our data, if they occured in-between our weather recording intervals... More about our weather records

Advertising

Waterbury Weather History for the Previous 24 Hours

Scroll right to see more
 ConditionsComfort  
Time TempWeatherWind HumidityBarometerVisibility
3:50 PM
Tue, Aug 23
75 °FPassing clouds.5 mph39%30.30 "Hg10 mi
2:50 PM75 °FPassing clouds.7 mph41%30.31 "Hg10 mi
1:50 PM73 °FPassing clouds.3 mph41%30.32 "Hg10 mi
12:50 PM73 °FPassing clouds.5 mph44%30.32 "Hg10 mi
11:50 AM72 °FScattered clouds.6 mph50%30.35 "Hg10 mi
10:50 AM70 °FPassing clouds.6 mph53%30.35 "Hg10 mi
9:50 AM66 °FSunny.6 mph60%30.35 "Hg10 mi
8:50 AM63 °FSunny.3 mph64%30.34 "Hg10 mi
7:50 AM59 °FSunny.3 mph68%30.32 "Hg10 mi
6:50 AM54 °FClear.3 mph77%30.31 "Hg10 mi
5:50 AM54 °FClear.3 mph72%30.30 "Hg10 mi
5:35 AM52 °FCool.3 mph77%30.29 "Hg10 mi
5:15 AM54 °FCool.No wind72%30.29 "Hg10 mi
4:55 AM52 °FCool.3 mph72%30.27 "Hg10 mi
4:35 AM54 °FCool.No wind72%30.27 "Hg10 mi
4:15 AM52 °FCool.5 mph77%30.26 "Hg10 mi
3:55 AM54 °FCool.3 mph72%30.26 "Hg10 mi
3:35 AM54 °FCool.6 mph77%30.25 "Hg10 mi
3:15 AM54 °FCool.5 mph77%30.25 "Hg10 mi
2:55 AM54 °FCool.6 mph77%30.25 "Hg10 mi
2:35 AM52 °FCool.3 mph77%30.25 "Hg10 mi
2:15 AM52 °FCool.5 mph77%30.25 "Hg10 mi
1:55 AM54 °FCool.No wind77%30.24 "Hg10 mi
1:35 AM55 °FCool.7 mph72%30.24 "Hg10 mi
1:15 AM55 °FCool.3 mph72%30.24 "Hg10 mi
12:55 AM54 °FCool.3 mph77%30.24 "Hg10 mi
12:35 AM54 °FCool.No wind77%30.24 "Hg10 mi
12:15 AM55 °FCool.No wind72%30.24 "Hg10 mi
11:55 PM
Mon, Aug 22
57 °FCool.No wind67%30.23 "Hg10 mi
11:35 PM59 °FRefreshingly cool.5 mph59%30.22 "Hg10 mi
11:15 PM57 °FCool.5 mph67%30.21 "Hg10 mi
10:55 PM57 °FCool.No wind67%30.20 "Hg10 mi
10:35 PM57 °FCool.6 mph63%30.19 "Hg10 mi
10:15 PM59 °FRefreshingly cool.3 mph59%30.19 "Hg10 mi
9:55 PM61 °FRefreshingly cool.6 mph55%30.19 "Hg10 mi
9:35 PM63 °FMild.10 mph52%30.18 "Hg10 mi
9:15 PM61 °FRefreshingly cool.10 mph55%30.18 "Hg10 mi
8:50 PM63 °FClear.12 mph52%30.15 "Hg10 mi
7:50 PM66 °FSunny.13 mph46%30.13 "Hg10 mi
6:50 PM68 °FPassing clouds.16 mph46%30.10 "Hg10 mi
5:50 PM72 °FPassing clouds.16 mph41%30.08 "Hg10 mi
Weather by CustomWeather, © 2016

See weather overviewHow to use our weather pages